Location: Misciano
(43.5000°N, 11.9500°E)
Time: 07:13:28
(UTC+00:00)

CZ-2D R/B - Pass Details

Date: 13 August 2020
Orbit: 791 x 845 km, 98.7° (Epoch: 26 September)

Event Time Altitude Azimuth Distance (km) Brightness Sun altitude
Rises 23:41:36 0° 27° (NNE) 3,415 6.3 -31.9°
Reaches altitude 10° 23:44:34 10° 43° (NE) 2,474 5.2 -31.9°
Enters shadow 23:48:16 21° 85° (E) 1,798 4.0 -31.8°
